Williams, AZ

6:50 PM MST on October 19, 2017 (GMT -0700)
Williams

Weather History for KCMR - June, 2014

Change the Weather History Date:

Sunday, June 1, 2014

  Actual Average (K40G) Record (K40G)
Temperature  
Mean Temperature 64 °F -  
Max Temperature 80 °F 71 °F 80 °F (1998)
Min Temperature 48 °F 63 °F 62 °F (1998)
Degree Days  
Heating Degree Days 1    
Growing Degree Days 14 (Base 50)    
Moisture  
Dew Point 9 °F    
Average Humidity 12    
Maximum Humidity 28    
Minimum Humidity 4    
Precipitation  
Precipitation 0.00 in - - ()
Sea Level Pressure  
Sea Level Pressure 30.19 in    
Wind  
Wind Speed 10 mph (SSW)    
Max Wind Speed 21 mph    
Max Gust Speed 31 mph    
Visibility 10 miles    
Events      
Averages and records for this station are not official NWS values.
T = Trace of Precipitation, MM = Missing Value Source: NWS Daily Summary

Daily Weather History Graph

Daily Weather History Graph

Search for Another Location

Airport or City:

Trip Planner

Search our weather history database for the weather conditions in past years. The results will help you decide how hot, cold, wet, or windy it might be!

Date:

Astronomy

Jun. 01, 2014 Rise Set
Actual Time 5:15 AM MST 7:38 PM MST
Civil Twilight 4:45 AM MST 8:07 PM MST
Nautical Twilight 4:09 AM MST 8:43 PM MST
Astronomical Twilight 3:30 AM MST 9:23 PM MST
Moon 8:46 AM MST (6/1) 10:40 PM MST (6/1)
Length of Visible Light 15h 21m
Length of Day
14h 23m
Waxing Crescent, 15% of the Moon is Illuminated
Jun 1
Waxing Crescent
Jun 5
First Quarter
Jun 12
Full
Jun 19
Last Quarter
Jun 27
New

Hourly Weather History & Observations

Time (MST) Temp. Dew Point Humidity Pressure Visibility Wind Dir Wind Speed Gust Speed Precip Events Conditions
12:15 AM 60.8 °F 12.2 °F 15% 30.20 in 10.0 mi South 9.2 mph - N/A   Clear
12:35 AM 59.0 °F 12.2 °F 16% 30.20 in 10.0 mi South 8.1 mph - N/A   Clear
12:55 AM 59.0 °F 12.2 °F 16% 30.19 in 10.0 mi SSW 6.9 mph - N/A   Clear
1:15 AM 59.0 °F 10.4 °F 15% 30.19 in 10.0 mi SSW 9.2 mph - N/A   Clear
1:35 AM 59.0 °F 10.4 °F 15% 30.19 in 10.0 mi SSW 8.1 mph - N/A   Clear
1:55 AM 59.0 °F 12.2 °F 16% 30.19 in 10.0 mi SSW 6.9 mph - N/A   Clear
2:15 AM 59.0 °F 12.2 °F 16% 30.19 in 10.0 mi South 8.1 mph - N/A   Clear
2:35 AM 59.0 °F 12.2 °F 16% 30.18 in 10.0 mi SSW 8.1 mph - N/A   Clear
2:55 AM 57.2 °F 12.2 °F 17% 30.19 in 10.0 mi SSW 4.6 mph - N/A   Clear
3:15 AM 57.2 °F 14.0 °F 18% 30.19 in 10.0 mi SSW 4.6 mph - N/A   Clear
3:35 AM 57.2 °F 14.0 °F 18% 30.19 in 10.0 mi SSW 5.8 mph - N/A   Clear
3:55 AM 57.2 °F 14.0 °F 18% 30.19 in 10.0 mi South 8.1 mph - N/A   Clear
4:15 AM 57.2 °F 14.0 °F 18% 30.19 in 10.0 mi South 8.1 mph - N/A   Clear
4:35 AM 57.2 °F 15.8 °F 20% 30.19 in 10.0 mi South 8.1 mph - N/A   Clear
4:55 AM 57.2 °F 15.8 °F 20% 30.19 in 10.0 mi SSW 6.9 mph - N/A   Clear
5:15 AM 59.0 °F 15.8 °F 19% 30.18 in 10.0 mi SSW 8.1 mph - N/A   Clear
5:35 AM 57.2 °F 15.8 °F 20% 30.19 in 10.0 mi SSW 6.9 mph - N/A   Clear
5:55 AM 57.2 °F 15.8 °F 20% 30.20 in 10.0 mi South 5.8 mph - N/A   Clear
6:15 AM 50.0 °F 17.6 °F 28% 30.20 in 10.0 mi SSW 5.8 mph - N/A   Clear
6:35 AM 64.4 °F 17.6 °F 16% 30.20 in 10.0 mi SW 9.2 mph - N/A   Clear
6:55 AM 66.2 °F 17.6 °F 15% 30.20 in 10.0 mi SW 9.2 mph - N/A   Clear
7:15 AM 66.2 °F 17.6 °F 15% 30.20 in 10.0 mi SSW 12.7 mph 18.4 mph N/A   Clear
7:35 AM 68.0 °F 17.6 °F 15% 30.20 in 10.0 mi SW 12.7 mph 19.6 mph N/A   Clear
7:55 AM 68.0 °F 17.6 °F 15% 30.20 in 10.0 mi SSW 12.7 mph 19.6 mph N/A   Clear
8:15 AM 68.0 °F 17.6 °F 15% 30.21 in 10.0 mi SSW 13.8 mph 21.9 mph N/A   Clear
8:35 AM 69.8 °F 15.8 °F 13% 30.21 in 10.0 mi South 15.0 mph 20.7 mph N/A   Clear
8:55 AM 69.8 °F 17.6 °F 14% 30.21 in 10.0 mi SW 15.0 mph 23.0 mph N/A   Clear
9:15 AM 71.6 °F 21.2 °F 15% 30.21 in 10.0 mi South 17.3 mph 26.5 mph N/A   Clear
9:35 AM 71.6 °F 19.4 °F 14% 30.21 in 10.0 mi SSW 18.4 mph 31.1 mph N/A   Clear
9:55 AM 71.6 °F 17.6 °F 13% 30.21 in 10.0 mi SW 16.1 mph 24.2 mph N/A   Clear
10:15 AM 73.4 °F 15.8 °F 11% 30.21 in 10.0 mi South 18.4 mph 25.3 mph N/A   Clear
10:35 AM 73.4 °F 14.0 °F 10% 30.21 in 10.0 mi South 16.1 mph 25.3 mph N/A   Clear
10:55 AM 73.4 °F 14.0 °F 10% 30.21 in 10.0 mi South 15.0 mph 21.9 mph N/A   Clear
11:15 AM 75.2 °F 14.0 °F 10% 30.21 in 10.0 mi South 11.5 mph 24.2 mph N/A   Clear
11:55 AM 77.0 °F 10.4 °F 8% 30.20 in 10.0 mi SSW 13.8 mph 24.2 mph N/A   Clear
12:15 PM 77.0 °F 8.6 °F 7% 30.20 in 10.0 mi SW 15.0 mph 27.6 mph N/A   Clear
12:35 PM 77.0 °F 8.6 °F 7% 30.20 in 10.0 mi SSW 18.4 mph 25.3 mph N/A   Clear
12:55 PM 77.0 °F 6.8 °F 7% 30.19 in 10.0 mi SSW 11.5 mph 29.9 mph N/A   Clear
1:15 PM 78.8 °F 6.8 °F 6% 30.19 in 10.0 mi SSW 12.7 mph 29.9 mph N/A   Clear
1:35 PM 80.6 °F 5.0 °F 6% 30.18 in 10.0 mi SSW 20.7 mph 29.9 mph N/A   Clear
1:55 PM 80.6 °F 5.0 °F 6% 30.18 in 10.0 mi SSW 13.8 mph 27.6 mph N/A   Clear
2:15 PM 80.6 °F 5.0 °F 6% 30.18 in 10.0 mi SW 20.7 mph 26.5 mph N/A   Clear
2:55 PM 80.6 °F 1.4 °F 5% 30.18 in 10.0 mi SW 16.1 mph 28.8 mph N/A   Clear
3:15 PM 78.8 °F 1.4 °F 5% 30.17 in 10.0 mi SW 19.6 mph 27.6 mph N/A   Clear
3:35 PM 80.6 °F 1.4 °F 5% 30.17 in 10.0 mi SW 6.9 mph 23.0 mph N/A   Clear
3:55 PM 80.6 °F 5.0 °F 6% 30.17 in 10.0 mi SSW 15.0 mph 21.9 mph N/A   Clear
4:15 PM 80.6 °F -0.4 °F 4% 30.17 in 10.0 mi WSW 15.0 mph 25.3 mph N/A   Clear
4:35 PM 80.6 °F -0.4 °F 4% 30.16 in 10.0 mi SSW 10.4 mph 20.7 mph N/A   Clear
4:55 PM 78.8 °F -0.4 °F 5% 30.17 in 10.0 mi SSW 11.5 mph 25.3 mph N/A   Clear
5:15 PM 77.0 °F -0.4 °F 5% 30.16 in 10.0 mi SSW 9.2 mph 21.9 mph N/A   Clear
5:35 PM 77.0 °F -0.4 °F 5% 30.16 in 10.0 mi SW 10.4 mph 20.7 mph N/A   Clear
5:55 PM 77.0 °F -0.4 °F 5% 30.16 in 10.0 mi SSW 10.4 mph 18.4 mph N/A   Clear
6:15 PM 77.0 °F -0.4 °F 5% 30.16 in 10.0 mi WSW 12.7 mph 17.3 mph N/A   Clear
6:35 PM 75.2 °F -0.4 °F 5% 30.17 in 10.0 mi SSW 11.5 mph - N/A   Clear
6:55 PM 73.4 °F -0.4 °F 5% 30.18 in 10.0 mi SSW 10.4 mph - N/A   Clear
7:15 PM 73.4 °F -0.4 °F 5% 30.18 in 10.0 mi South 12.7 mph 16.1 mph N/A   Clear
7:35 PM 71.6 °F -0.4 °F 6% 30.18 in 10.0 mi SSW 9.2 mph 16.1 mph N/A   Clear
7:55 PM 68.0 °F -0.4 °F 7% 30.19 in 10.0 mi SSW 6.9 mph - N/A   Clear
8:15 PM 68.0 °F -0.4 °F 7% 30.20 in 10.0 mi SSW 8.1 mph - N/A   Clear
8:35 PM 64.4 °F -0.4 °F 7% 30.20 in 10.0 mi South 8.1 mph - N/A   Clear
9:15 PM 62.6 °F -0.4 °F 8% 30.21 in 10.0 mi SSW 6.9 mph - N/A   Clear
9:35 PM 64.4 °F -0.4 °F 7% 30.22 in 10.0 mi SSW 5.8 mph - N/A   Clear
9:55 PM 62.6 °F -0.4 °F 8% 30.22 in 10.0 mi South 5.8 mph - N/A   Clear
10:15 PM 60.8 °F -0.4 °F 8% 30.22 in 10.0 mi SSW 4.6 mph - N/A   Clear
10:35 PM 51.8 °F 3.2 °F 14% 30.22 in 10.0 mi SSW 3.5 mph - N/A   Clear
10:55 PM 48.2 °F 3.2 °F 16% 30.22 in 10.0 mi South 4.6 mph - N/A   Clear
11:15 PM 48.2 °F 5.0 °F 17% 30.22 in 10.0 mi SSE 4.6 mph - N/A   Clear
11:35 PM 48.2 °F 5.0 °F 17% 30.23 in 10.0 mi SSE 8.1 mph - N/A   Clear
11:55 PM 48.2 °F 6.8 °F 19% 30.23 in 10.0 mi SSE 9.2 mph - N/A   Clear